CZ-2D R/B, 41858

Orbit data source: Space-Track

CZ-2D R/B, 41858 is space debris in SSO originally from a launch on Fri, 11 Nov 2016 UTC launched from the Jiuquan Satellite Launch Center, China (JSC). Debris objects in space refer to the collection of defunct objects orbiting the Earth. Examples of debris include non-operational satellites, rocket bodies, and fragments generated from explosions, collisions, or faulty payload assembly.

Loading next visibility...
Identifier
41858, 2016-068B
Orbit
SSO
Country
Flag of CNCN / PRC
Related business
Manufacturer
BWYIC
Mission
Spacecraft
Bus & Motor
CZ-2 STAGE 2, Unknown motor
Mass
4,006 kg wet, 4,006 kg dry
Launch date (UTC)
2016-11-11 (9 years ago)
Launch vehicle
Unknown
Launch site
Jiuquan Satellite Launch Center, China (JSC)
Object type
Payload
Rocket body
Debris
Shape & HBR
Cyl + 1 Sail, 4.0 m
Radar Cross Section
25.456 m², Large (>1 m²)

Expand to show TLE details & history
Last TLE update: 8 hours ago

TLE from 8 hours ago
0 CZ-2D R/B
1 41858U 16068B   25258.54667240  .00000110  00000-0  51904-4 0  9998
2 41858  98.6266 257.8347 0031921 275.3334  84.4210 14.36991912463528
Epoch: 2025-09-15T13:07Z
TLE epoch observation values (Epoch: 2025-09-15T13:07:12.495Z)
Latitude
-0.00006°
Longitude
66.28288°
Altitude
769.249 km
Speed
7.471 km/s
True Right ascension
17h 11m 20s
True Declination
0° 00' 00"
Sunlit
Object was in daylight at epoch
Visualization orbit readout
Latitude
Unknown
Longitude
Unknown
Altitude
Unknown
Speed
Unknown
Apparent Right ascension
Unknown
Apparent Declination
Unknown
Sunlit
N/A
Visualization observer readout
Local Sidereal Time
13:57:45
Azimuth
Unknown
Elevation
Unknown
Doppler factor
Unknown
Orbital elements
Apogee altitude
788.39 km
Perigee altitude
742.783 km
Semi-major axis
7,143.723 km
Eccentricity
0.00319
Inclination
98.6266°
RAAN
257.8347°
Arg. of periapsis
275.3334°
True anomaly
84.78519°
Mean anomaly
84.421°
Eccentric anomaly
84.60308°
Mean motion
3.59465 °/min
Orbital period
100.15 mins
BSTAR
0.000051904
Loading maneuver chart data...
Computing Atmospheric mass density...
Loading historical data...
Loading historical data...
Loading historical data...
Loading historical data...
Loading historical data...
Loading historical data...
Loading historical data...

Documentation

Showing up to 5 results
|